Location: Home
(42.5358°N, 72.7383°W)
Time: 20:26:17
(UTC-05:00)

Explorer 7 - Pass Details

Date: 05 December 2021
Orbit: 483 x 674 km, 50.3° (Epoch: 23 January)

Event Time Altitude Azimuth Distance (km) Brightness Sun altitude
Rises 10:07:39 0° 301° (WNW) 2,659 9.9 21.5°
Reaches altitude 10° 10:09:56 10° 304° (NW) 1,741 9.0 21.7°
Maximum altitude 10:13:49 65° 27° (NNE) 550 7.0 21.9°
Drops below altitude 10° 10:17:34 10° 110° (ESE) 1,670 10.0 22.2°
Sets 10:19:43 0° 114° (ESE) 2,539 10.9 22.3°
